Notices

What's New in latest Release from April 7th, 2021:

- Updated Glossary, including Speed of Maximum Gust, and Total Hourly Precipitation

- Updated national and regional climate services offices contacts and prices information

- Addition of station inventory lists for 1981-2010, 1971-2000, and 1961-1990 Normals.

If you haven't already, please take our survey and provide feedback about our website: https://eccc.sondage-survey.ca/f/LanguageSelection.aspx?s=442ca660-fcf1-47c0-95a9-59707d6fd709

Hourly Data Report for April 03, 2021

WIARTON A
ONTARIO
Current Station Operator: NAVCAN

44°44'39.000" N
81°06'31.000" W
221.90 m
6119499
71633
YVV

Download Data

Hourly Data (April 2021)
Hourly Data Report for April 3, 2021
TIME
LST
Temp Definition
°C
Dew Point Definition
°C
Rel Hum Definition
%
Precip. Amount Definition
mm

Wind Dir Definition
10's deg

Wind Spd Definition
km/h
Visibility Definition
km
Stn Press Definition
kPa
Hmdx Definition


Wind Chill Definition


Weather Definition


00:00 -4.0 -9.0 68   19 10 24.1 99.97   -8 LegendNANA
01:00 -3.8 -9.4 65   19 9 24.1 99.95   -8 Clear
02:00 -3.3 -9.8 61   18 13 24.1 99.92   -8 LegendNANA
03:00 -3.1 -9.7 61   19 12 24.1 99.91   -8 LegendNANA
04:00 -3.2 -9.0 64   18 12 24.1 99.87   -8 Mostly Cloudy
05:00 -2.4 -7.3 69   18 15 24.1 99.79   -7 LegendNANA
06:00 -1.7 -6.6 69   18 15 24.1 99.77   -7 LegendNANA
07:00 -0.3 -5.9 66   18 18 24.1 99.77   -5 Cloudy
08:00 0.8 -5.0 65   19 21 24.1 99.72     LegendNANA
09:00 3.6 -4.6 55   19 22 24.1 99.64     LegendNANA
10:00 5.2 -4.8 48   20 26 24.1 99.56     Cloudy
11:00 6.4 -7.3 37   21 28 24.1 99.50     LegendNANA
12:00 8.4 -5.8 36   19 28 24.1 99.35     LegendNANA
13:00 8.6 -5.2 37   19 28 24.1 99.23     Mostly Cloudy
14:00 9.4 -5.4 35   20 30 24.1 99.23     LegendNANA
15:00 10.3 -3.5 38   20 31 24.1 99.17     LegendNANA
16:00 9.7 -2.3 43   20 27 24.1 99.15     Mostly Cloudy
17:00 9.6 -1.3 46   19 23 24.1 99.14     LegendNANA
18:00 8.7 -1.2 50   20 21 24.1 99.15     LegendNANA
19:00 6.2 -0.5 62   18 15 24.1 99.15     Clear
20:00 4.1 -1.1 69   14 10 24.1 99.18     LegendNANA
21:00 2.8 -1.9 71   16 9 24.1 99.21     LegendNANA
22:00 2.8 -1.4 74   36 3 24.1 99.23     Clear
23:00 0.6 -2.2 82   16 5 24.1 99.20     LegendNANA

Notes on Data Quality.

Legend

  • E = Estimated
  • M = Missing
  • NA = Not Available*
  • [empty] = Indicates an unobserved value
Date modified: